SCP
0 0 0 0 0 0 0 0 0 0 0 0 0 0 0 0 0 0 0 0 0 0 0 0 0 0 0 0 0 0 0 0 0 -0 0 0 0 0 0 0 0 0 -0 0
0 0 0 0 0 0 0 0 0 0 0 0 0 0 0 0 0 0 0 0 0 0 0 0 0 0 0 0 0 0 0 0 0 0 0 0 0 0 0 0 -0 -0 -0 0
0 0 0 0 0 0 0 0 0 0 0 0 0 0 0 0 0 0 0 0 0 0 0 0 0 0 0 0 0 0 0 0 0 0 0 0 0 0 0 0 -0 -0 -0 -0
0 0 0 0 0 0 0 0 0 0 0 0 0 0 0 0 0 0 0 0 0 -0 0 0 -0 0 0 0 0 0 0 0 0 0 0 0 0 0 0 0 -0 -0 -0 -0
0 0 0 0 0 0 0 0 0 0 0 0 0 0 0 0 0 0 0 0 0 0 0 0 -0 0 0 0 -0 0 0 0 0 -0 0 0 0 0 0 0 -0 -0 -0 -0
0 0 0 0 0 0 0 0 0 0 0 0 0 0 0 0 0 0 0 -0 -0 0 0 0 0 -0 -0 0 0 0 -0 -0 0 0 0 0 -0 0 -0 -0 -0 -0 -0 -0
0 0 0 0 0 0 0 0 0 0 0 0 0 0 0 0 0 0 0 0 0 0 0 0 0 0 0 -0 -0 -0 0 0 0 0 0 -0 0 0 -0 -0 -0 -0 -0 -0
0 0 0 0 0 0 0 0 0 0 0 0 0 0 0 0 0 0 0 -0 -0 0 0 0 0 0 0 0 0 0 -0 0 0 0 -0 -0 0 -0 -0 0 -0 0 -0 0
0 0 0 0 0 0 0 0 0 0 0 0 0 0 0 0 0 0 0 -0 0 0 0 0 0 0 0 0 0 0 -0 -0 0 -0 -0 -0 -0 0 0 -0 0 0 -0 0
0 0 0 0 0 0 0 0 0 0 0 0 0 0 0 0 0 0 0 0 0 0 0 0 0 0 0 0 0 0 -0 0 -0 0 0 -0 0 0 -0 0 0 0 0 0
0 0 0 0 0 0 0 0 0 0 0 0 0 0 0 0 0 0 0 0 0 0 0 0 0 0 0 0 0 0 0 0 0 0 0 0 -0 -0 -0 0 0 0 0 0
0 0 0 -0 0 0 0 0 0 0 0 0 0 0 0 -0 -0 0 0 0 0 0 0 0 0 0 0 0 0 0 0 0 0 0 0 0 -0 -0 -0 0 0 0 0 0
0 0 0 0 -0 -0 0 0 0 0 0 0 0 0 0 0 -0 -0 0 0 0 0 0 0 0 0 0 0 0 0 0 0 0 0 0 -0 -0 0 -0 0 0 0 0 0
0 0 0 0 0 0 0 0 0 0 0 0 0 0 0 -0 0 -0 -0 0 0 0 0 0 0 0 0 0 0 0 0 0 0 0 0 0 0 -0 0 0 0 0 0 0
0 0 0 0 0 0 0 0 0 0 0 0 0 0 0 -0 0 -0 -0 -0 0 0 0 0 0 0 0 0 0 0 0 0 0 0 0 -0 -0 0 0 0 0 0 0 0
0 0 0 0 0 0 0 0 0 0 0 0 0 0 0 0 0 0 -0 -0 0 0 0 0 0 0 0 -0 -0 0 0 0 -0 -0 -0 -0 0 0 0 0 0 0 0 0
0 0 0 0 0 0 0 0 0 0 0 0 0 0 -0 -0 0 0 0 0 0 0 0 0 0 0 0 0 -0 -0 -0 -0 -0 -0 -0 -0 0 0 0 0 0 0 0 0
0 0 0 0 0 0 0 0 0 0 0 0 0 0 0 0 0 0 0 0 0 0 0 0 -0 -0 0 0 -0 -0 -0 -0 -0 -0 -0 -0 0 0 0 0 0 0 0 0
0 0 0 0 0 0 0 0 0 0 0 0 0 0 0 -0 0 0 0 0 0 0 0 0 0 -0 0 0 0 -0 -0 -0 -0 -0 -0 -0 0 0 0 0 0 0 0 0
0 0 0 0 0 0 0 0 0 0 0 0 0 0 0 0 0 0 0 0 0 0 0 -0 0 0 0 0 -0 -0 -0 -0 -0 -0 -0 -0 -0 0 0 0 0 0 0 0
0 0 0 0 0 0 0 0 0 0 0 -0 -0 0 0 -0 0 0 0 0 0 0 -0 -0 -0 0 -0 0 -0 0 -0 -0 -0 -0 -0 -0 0 0 0 0 0 0 0 0
0 0 0 0 0 0 0 0 0 0 0 0 0 0 0 0 0 0 0 0 0 0 0 0 -0 -0 0 0 0 -0 0 -0 -0 -0 -0 -0 -0 -0 0 0 0 0 0 0
0 0 0 0 0 0 0 0 0 0 0 0 0 0 0 0 0 0 0 0 0 0 0 0 0 -0 0 0 0 0 -0 -0 -0 -0 -0 -0 -0 -0 -0 0 0 0 0 0
0 0 0 0 0 0 0 0 0 0 0 0 0 0 0 0 0 0 0 0 0 0 0 0 0 0 0 0 0 0 -0 0 -0 -0 -0 -0 -0 -0 -0 -0 -0 -0 0 0
0 0 0 0 0 0 0 0 0 0 0 0 0 0 0 0 0 0 0 0 0 0 -0 0 0 0 0 -0 0 0 0 -0 -0 0 0 -0 -0 -0 -0 -0 -0 -0 -0 0
0 0 0 0 0 0 0 0 0 0 0 0 0 0 0 0 0 0 0 0 0 0 0 0 0 0 0 0 0 0 0 0 0 -0 0 -0 -0 -0 -0 -0 -0 -0 -0 -0
0 0 0 0 0 0 0 0 0 0 0 0 0 0 0 0 0 0 0 0 0 0 0 0 0 0 -0 0 -0 0 0 0 0 0 0 0 0 0 0 -0 -0 -0 -0 -0
Wind_Speed_500mb
57 58 58 57 63 65 55 16 4 13 11 8 5 1 7 15 17 13 10 7 10 9 5 9 8 12 7 3 1 11 4 2 6 14 11 7 6 6 9 7 11 9 7 12
56 55 56 53 54 59 54 22 9 9 17 4 5 11 10 11 8 13 6 8 7 3 5 10 9 10 14 7 8 7 3 2 7 8 4 7 1 7 7 4 3 11 8 14
61 54 55 53 47 49 37 15 8 8 10 6 5 9 11 9 15 16 8 10 11 6 15 15 11 12 12 5 12 18 4 3 9 9 4 3 7 14 15 6 10 10 22 23
60 57 53 51 45 39 24 15 3 5 8 6 10 9 9 17 11 7 9 8 8 16 15 26 27 23 14 19 14 1 9 11 10 16 16 19 20 27 26 29 20 13 6 17
60 58 52 46 45 37 14 13 10 7 15 28 9 7 7 14 13 11 22 13 30 28 26 29 42 35 28 23 7 11 11 7 4 16 20 22 27 31 34 35 35 31 24 42
59 58 53 42 34 36 12 17 7 6 12 9 5 7 8 17 33 21 22 31 34 30 33 36 58 65 65 35 13 14 11 9 6 8 8 11 18 30 36 31 27 24 27 24
59 56 50 37 24 27 25 23 15 4 8 6 8 15 33 34 22 29 43 47 18 30 70 80 53 44 40 36 32 28 11 11 8 7 4 9 12 18 14 31 31 37 21 27
58 52 45 35 19 20 25 26 14 7 7 15 25 17 14 33 35 30 33 51 49 56 32 10 13 5 5 6 6 26 29 12 6 6 8 17 22 2 8 8 14 22 35 31
56 53 43 33 20 20 23 27 23 13 11 9 23 28 31 12 11 9 18 51 43 18 7 6 7 6 8 6 8 8 19 22 13 6 6 8 2 4 19 8 14 8 18 27
51 51 46 37 26 21 19 27 32 17 15 29 16 16 12 15 10 8 19 24 13 21 8 6 4 7 11 8 10 6 2 9 24 16 9 13 2 7 18 12 5 16 9 22
51 51 45 35 32 21 22 29 31 31 19 55 45 27 35 29 22 5 15 19 7 8 11 7 6 5 6 8 6 6 4 4 7 7 10 16 22 20 13 5 21 22 27 25
42 51 45 36 26 26 23 33 29 32 43 62 81 84 68 72 61 35 10 8 9 4 4 4 6 6 6 10 7 3 4 4 4 6 5 14 46 40 57 55 42 20 21 4
45 43 45 40 31 21 26 35 34 38 36 52 34 24 8 1 11 19 19 11 8 6 9 4 4 9 5 6 5 7 5 10 5 6 7 17 60 18 23 11 27 36 30 26
47 46 42 39 30 28 29 36 35 34 18 11 20 19 50 43 30 34 46 43 16 12 8 7 4 7 9 5 8 5 7 15 14 6 14 30 38 61 44 40 57 50 50 44
46 44 40 37 29 31 36 41 41 42 30 9 30 52 7 15 17 20 35 49 44 15 4 5 6 8 6 3 5 5 11 9 10 7 34 17 35 41 37 63 59 50 54 52
45 44 39 34 28 25 28 12 4 8 31 8 7 22 15 19 9 11 23 33 31 16 6 10 11 10 5 3 5 10 29 33 27 11 18 31 29 34 40 35 37 51 54 53
44 41 39 32 24 22 18 8 11 8 21 8 8 13 10 21 10 7 14 21 16 13 7 8 8 9 5 1 4 12 32 33 31 37 17 18 22 17 28 27 30 27 34 40
43 38 32 27 25 25 24 5 25 20 15 9 4 8 16 4 6 3 7 6 8 11 7 6 6 8 2 4 9 15 21 26 29 31 30 26 32 38 41 37 28 31 39 32
40 27 12 8 4 4 2 14 16 36 17 10 7 2 7 7 8 6 4 6 4 5 4 6 3 3 6 10 5 7 17 17 15 30 37 37 39 40 43 42 42 32 25 28
31 12 4 5 3 6 8 9 4 19 19 15 8 10 6 8 5 4 3 5 4 4 7 5 3 7 9 10 9 1 12 20 22 26 25 35 36 32 36 40 42 38 32 29
30 19 7 9 13 11 7 6 8 8 6 11 10 19 11 12 5 6 5 4 2 3 7 0 5 6 7 16 14 3 5 19 23 22 19 23 24 29 31 40 46 47 41 41
37 24 22 13 5 7 6 7 7 9 8 7 7 10 18 10 15 4 4 3 3 7 7 2 6 7 10 22 16 6 16 21 21 19 19 19 25 26 29 37 45 46 45 41
8 5 7 5 4 3 9 9 5 4 3 3 5 7 8 9 10 4 4 3 7 3 5 6 8 9 13 21 15 19 17 24 20 19 25 25 28 30 30 38 39 43 46 45
5 6 9 8 7 9 8 5 4 5 12 32 32 13 8 9 6 4 6 5 5 4 1 10 7 17 22 23 24 26 20 26 20 20 21 28 31 33 32 32 32 39 47 47
8 8 10 10 18 14 11 10 10 18 20 31 23 9 7 2 2 4 2 5 5 10 9 7 16 15 27 24 23 18 19 20 21 21 23 23 25 29 31 29 31 36 39 45
10 13 10 19 7 8 3 12 15 27 35 34 8 4 3 7 5 6 11 10 11 8 7 14 11 23 31 33 28 23 20 18 15 24 24 23 21 24 26 27 29 33 37 43
9 13 22 34 34 26 23 15 36 35 21 4 3 5 11 3 2 5 6 8 7 9 16 14 13 23 37 39 25 21 20 24 24 28 26 22 18 17 19 25 25 28 34 37
Wind_Direction_500mb
348 349 353 357 355 357 360 3 39 16 345 30 53 17 294 290 277 316 281 251 256 250 312 276 264 241 230 199 343 315 19 151 264 246 264 5 351 269 201 192 251 258 112 289
346 347 349 356 357 357 352 349 312 336 355 75 324 305 284 269 296 306 325 285 251 264 256 283 258 290 304 304 180 220 186 276 312 304 11 40 311 289 234 206 126 222 235 251
350 345 346 350 359 357 355 355 358 340 41 73 101 319 289 281 268 280 326 265 266 344 285 241 278 276 296 311 222 254 185 214 219 229 275 114 293 293 296 241 230 244 243 294
344 345 342 342 357 3 5 9 21 4 304 317 316 258 267 287 315 245 305 281 260 305 294 298 266 258 266 262 273 319 176 224 231 254 279 284 263 267 268 268 257 251 309 260
339 341 342 340 344 9 7 4 356 333 286 288 266 261 255 295 310 306 307 260 301 298 289 279 290 281 266 267 246 180 189 233 205 289 273 253 264 260 257 253 255 256 255 273
339 339 339 340 346 356 0 344 295 275 281 292 335 250 259 294 315 290 265 296 298 295 290 288 278 271 265 250 219 205 192 192 150 252 245 322 277 251 255 247 228 219 227 256
336 334 334 337 339 333 341 341 326 282 274 260 237 290 288 287 286 282 296 293 277 281 304 302 289 263 249 247 239 205 182 171 176 251 326 248 245 313 286 249 222 215 207 233
332 331 332 330 324 316 315 320 303 250 272 251 295 298 280 296 290 282 274 287 304 310 315 316 321 341 245 214 235 213 207 171 204 214 200 287 295 87 4 332 263 217 229 246
332 333 330 325 317 307 298 302 297 247 279 242 300 303 288 284 298 295 296 314 321 326 13 332 314 315 293 321 317 70 207 205 198 174 239 252 183 83 7 328 269 178 220 226
332 333 329 328 315 298 289 287 295 256 256 279 292 283 278 299 287 281 299 333 329 8 354 340 319 295 330 312 312 339 177 179 214 211 243 281 111 8 1 217 252 309 273 256
332 331 330 326 325 305 289 288 292 273 260 287 278 261 268 274 245 258 312 331 345 348 359 338 326 292 312 289 284 340 306 274 186 205 218 250 15 327 200 353 319 308 297 273
328 327 328 320 308 314 300 287 292 293 256 273 292 290 276 254 249 265 283 276 293 245 322 325 300 297 286 302 327 282 316 256 294 234 278 313 285 237 267 278 278 309 320 196
319 318 321 319 314 291 289 284 281 286 281 296 284 292 273 288 283 246 221 239 231 218 237 267 286 282 298 314 315 296 258 263 245 295 239 276 300 7 175 192 63 48 60 78
317 313 313 313 305 294 287 282 268 271 272 283 282 297 303 283 267 242 240 241 273 285 242 247 254 268 226 285 285 284 282 307 307 279 282 304 359 34 33 51 64 56 60 61
317 313 312 310 302 293 294 295 279 249 234 276 293 312 350 316 282 253 229 236 245 273 262 242 240 265 284 291 293 307 338 328 358 348 352 18 7 32 33 48 43 39 57 59
319 315 312 308 300 296 312 314 333 224 205 257 291 317 297 324 312 222 219 225 235 241 244 252 272 253 264 345 289 280 348 1 18 318 32 30 5 25 53 49 38 46 51 47
320 315 310 300 286 268 244 254 282 299 187 251 277 297 284 308 301 232 228 223 218 227 251 250 263 285 235 143 267 305 350 17 35 32 41 21 25 29 52 60 51 52 55 53
320 317 309 299 277 256 268 313 246 205 209 251 271 277 316 273 299 263 216 214 210 218 242 241 239 291 248 266 259 332 12 40 53 48 50 58 73 72 61 58 50 48 57 60
324 319 320 323 41 166 296 324 307 221 217 294 217 249 268 304 268 249 236 231 249 228 237 238 182 296 236 227 246 10 37 32 50 69 68 62 57 66 67 64 58 60 65 73
337 328 290 226 204 291 275 243 216 174 217 231 242 209 268 313 308 283 186 220 269 266 246 274 138 257 252 210 217 27 38 51 80 82 59 53 71 71 60 64 58 58 66 67
357 341 298 296 287 301 207 226 200 191 243 224 240 234 240 263 193 241 220 200 281 352 269 266 308 290 232 183 204 215 60 105 93 88 72 69 74 84 66 56 48 46 54 59
321 308 306 307 274 237 224 206 183 206 233 205 204 256 223 248 221 202 216 173 37 256 334 356 277 250 195 163 157 133 123 130 113 91 69 72 80 73 68 55 53 52 52 54
321 284 264 224 233 318 219 216 223 206 155 220 292 304 238 223 220 231 96 124 230 348 31 246 237 265 191 161 157 152 154 145 126 108 102 89 84 78 69 56 54 55 57 62
283 269 263 215 221 236 214 200 167 32 265 286 299 265 226 190 175 191 165 213 75 36 271 241 254 256 197 174 164 171 164 163 145 137 118 103 94 87 75 65 62 57 54 54
260 231 241 237 236 256 267 300 302 305 320 325 321 250 217 177 7 305 95 142 241 203 232 233 251 235 194 189 175 163 162 167 179 158 140 119 100 95 86 69 66 63 62 59
242 234 258 258 300 290 321 309 313 338 329 325 219 231 176 220 189 191 222 148 219 247 226 240 230 205 188 181 183 183 187 190 190 179 165 145 125 106 93 84 75 72 66 63
240 250 249 261 281 270 282 300 311 320 323 275 213 213 223 106 224 241 200 204 226 286 290 241 221 211 204 194 199 200 191 186 182 183 175 160 143 119 105 89 81 72 70 69
Wind_Speed_850mb
57 58 58 57 63 65 55 16 4 13 11 8 5 1 7 15 17 13 10 7 10 9 5 9 8 12 7 3 1 11 4 2 6 14 11 7 6 6 9 7 11 9 7 12
56 55 56 53 54 59 54 22 9 9 17 4 5 11 10 11 8 13 6 8 7 3 5 10 9 10 14 7 8 7 3 2 7 8 4 7 1 7 7 4 3 11 8 14
61 54 55 53 47 49 37 15 8 8 10 6 5 9 11 9 15 16 8 10 11 6 15 15 11 12 12 5 12 18 4 3 9 9 4 3 7 14 15 6 10 10 22 23
60 57 53 51 45 39 24 15 3 5 8 6 10 9 9 17 11 7 9 8 8 16 15 26 27 23 14 19 14 1 9 11 10 16 16 19 20 27 26 29 20 13 6 17
60 58 52 46 45 37 14 13 10 7 15 28 9 7 7 14 13 11 22 13 30 28 26 29 42 35 28 23 7 11 11 7 4 16 20 22 27 31 34 35 35 31 24 42
59 58 53 42 34 36 12 17 7 6 12 9 5 7 8 17 33 21 22 31 34 30 33 36 58 65 65 35 13 14 11 9 6 8 8 11 18 30 36 31 27 24 27 24
59 56 50 37 24 27 25 23 15 4 8 6 8 15 33 34 22 29 43 47 18 30 70 80 53 44 40 36 32 28 11 11 8 7 4 9 12 18 14 31 31 37 21 27
58 52 45 35 19 20 25 26 14 7 7 15 25 17 14 33 35 30 33 51 49 56 32 10 13 5 5 6 6 26 29 12 6 6 8 17 22 2 8 8 14 22 35 31
56 53 43 33 20 20 23 27 23 13 11 9 23 28 31 12 11 9 18 51 43 18 7 6 7 6 8 6 8 8 19 22 13 6 6 8 2 4 19 8 14 8 18 27
51 51 46 37 26 21 19 27 32 17 15 29 16 16 12 15 10 8 19 24 13 21 8 6 4 7 11 8 10 6 2 9 24 16 9 13 2 7 18 12 5 16 9 22
51 51 45 35 32 21 22 29 31 31 19 55 45 27 35 29 22 5 15 19 7 8 11 7 6 5 6 8 6 6 4 4 7 7 10 16 22 20 13 5 21 22 27 25
42 51 45 36 26 26 23 33 29 32 43 62 81 84 68 72 61 35 10 8 9 4 4 4 6 6 6 10 7 3 4 4 4 6 5 14 46 40 57 55 42 20 21 4
45 43 45 40 31 21 26 35 34 38 36 52 34 24 8 1 11 19 19 11 8 6 9 4 4 9 5 6 5 7 5 10 5 6 7 17 60 18 23 11 27 36 30 26
47 46 42 39 30 28 29 36 35 34 18 11 20 19 50 43 30 34 46 43 16 12 8 7 4 7 9 5 8 5 7 15 14 6 14 30 38 61 44 40 57 50 50 44
46 44 40 37 29 31 36 41 41 42 30 9 30 52 7 15 17 20 35 49 44 15 4 5 6 8 6 3 5 5 11 9 10 7 34 17 35 41 37 63 59 50 54 52
45 44 39 34 28 25 28 12 4 8 31 8 7 22 15 19 9 11 23 33 31 16 6 10 11 10 5 3 5 10 29 33 27 11 18 31 29 34 40 35 37 51 54 53
44 41 39 32 24 22 18 8 11 8 21 8 8 13 10 21 10 7 14 21 16 13 7 8 8 9 5 1 4 12 32 33 31 37 17 18 22 17 28 27 30 27 34 40
43 38 32 27 25 25 24 5 25 20 15 9 4 8 16 4 6 3 7 6 8 11 7 6 6 8 2 4 9 15 21 26 29 31 30 26 32 38 41 37 28 31 39 32
40 27 12 8 4 4 2 14 16 36 17 10 7 2 7 7 8 6 4 6 4 5 4 6 3 3 6 10 5 7 17 17 15 30 37 37 39 40 43 42 42 32 25 28
31 12 4 5 3 6 8 9 4 19 19 15 8 10 6 8 5 4 3 5 4 4 7 5 3 7 9 10 9 1 12 20 22 26 25 35 36 32 36 40 42 38 32 29
30 19 7 9 13 11 7 6 8 8 6 11 10 19 11 12 5 6 5 4 2 3 7 0 5 6 7 16 14 3 5 19 23 22 19 23 24 29 31 40 46 47 41 41
37 24 22 13 5 7 6 7 7 9 8 7 7 10 18 10 15 4 4 3 3 7 7 2 6 7 10 22 16 6 16 21 21 19 19 19 25 26 29 37 45 46 45 41
8 5 7 5 4 3 9 9 5 4 3 3 5 7 8 9 10 4 4 3 7 3 5 6 8 9 13 21 15 19 17 24 20 19 25 25 28 30 30 38 39 43 46 45
5 6 9 8 7 9 8 5 4 5 12 32 32 13 8 9 6 4 6 5 5 4 1 10 7 17 22 23 24 26 20 26 20 20 21 28 31 33 32 32 32 39 47 47
8 8 10 10 18 14 11 10 10 18 20 31 23 9 7 2 2 4 2 5 5 10 9 7 16 15 27 24 23 18 19 20 21 21 23 23 25 29 31 29 31 36 39 45
10 13 10 19 7 8 3 12 15 27 35 34 8 4 3 7 5 6 11 10 11 8 7 14 11 23 31 33 28 23 20 18 15 24 24 23 21 24 26 27 29 33 37 43
9 13 22 34 34 26 23 15 36 35 21 4 3 5 11 3 2 5 6 8 7 9 16 14 13 23 37 39 25 21 20 24 24 28 26 22 18 17 19 25 25 28 34 37
Wind_Direction_850mb
348 349 353 357 355 357 360 3 39 16 345 30 53 17 294 290 277 316 281 251 256 250 312 276 264 241 230 199 343 315 19 151 264 246 264 5 351 269 201 192 251 258 112 289
346 347 349 356 357 357 352 349 312 336 355 75 324 305 284 269 296 306 325 285 251 264 256 283 258 290 304 304 180 220 186 276 312 304 11 40 311 289 234 206 126 222 235 251
350 345 346 350 359 357 355 355 358 340 41 73 101 319 289 281 268 280 326 265 266 344 285 241 278 276 296 311 222 254 185 214 219 229 275 114 293 293 296 241 230 244 243 294
344 345 342 342 357 3 5 9 21 4 304 317 316 258 267 287 315 245 305 281 260 305 294 298 266 258 266 262 273 319 176 224 231 254 279 284 263 267 268 268 257 251 309 260
339 341 342 340 344 9 7 4 356 333 286 288 266 261 255 295 310 306 307 260 301 298 289 279 290 281 266 267 246 180 189 233 205 289 273 253 264 260 257 253 255 256 255 273
339 339 339 340 346 356 0 344 295 275 281 292 335 250 259 294 315 290 265 296 298 295 290 288 278 271 265 250 219 205 192 192 150 252 245 322 277 251 255 247 228 219 227 256
336 334 334 337 339 333 341 341 326 282 274 260 237 290 288 287 286 282 296 293 277 281 304 302 289 263 249 247 239 205 182 171 176 251 326 248 245 313 286 249 222 215 207 233
332 331 332 330 324 316 315 320 303 250 272 251 295 298 280 296 290 282 274 287 304 310 315 316 321 341 245 214 235 213 207 171 204 214 200 287 295 87 4 332 263 217 229 246
332 333 330 325 317 307 298 302 297 247 279 242 300 303 288 284 298 295 296 314 321 326 13 332 314 315 293 321 317 70 207 205 198 174 239 252 183 83 7 328 269 178 220 226
332 333 329 328 315 298 289 287 295 256 256 279 292 283 278 299 287 281 299 333 329 8 354 340 319 295 330 312 312 339 177 179 214 211 243 281 111 8 1 217 252 309 273 256
332 331 330 326 325 305 289 288 292 273 260 287 278 261 268 274 245 258 312 331 345 348 359 338 326 292 312 289 284 340 306 274 186 205 218 250 15 327 200 353 319 308 297 273
328 327 328 320 308 314 300 287 292 293 256 273 292 290 276 254 249 265 283 276 293 245 322 325 300 297 286 302 327 282 316 256 294 234 278 313 285 237 267 278 278 309 320 196
319 318 321 319 314 291 289 284 281 286 281 296 284 292 273 288 283 246 221 239 231 218 237 267 286 282 298 314 315 296 258 263 245 295 239 276 300 7 175 192 63 48 60 78
317 313 313 313 305 294 287 282 268 271 272 283 282 297 303 283 267 242 240 241 273 285 242 247 254 268 226 285 285 284 282 307 307 279 282 304 359 34 33 51 64 56 60 61
317 313 312 310 302 293 294 295 279 249 234 276 293 312 350 316 282 253 229 236 245 273 262 242 240 265 284 291 293 307 338 328 358 348 352 18 7 32 33 48 43 39 57 59
319 315 312 308 300 296 312 314 333 224 205 257 291 317 297 324 312 222 219 225 235 241 244 252 272 253 264 345 289 280 348 1 18 318 32 30 5 25 53 49 38 46 51 47
320 315 310 300 286 268 244 254 282 299 187 251 277 297 284 308 301 232 228 223 218 227 251 250 263 285 235 143 267 305 350 17 35 32 41 21 25 29 52 60 51 52 55 53
320 317 309 299 277 256 268 313 246 205 209 251 271 277 316 273 299 263 216 214 210 218 242 241 239 291 248 266 259 332 12 40 53 48 50 58 73 72 61 58 50 48 57 60
324 319 320 323 41 166 296 324 307 221 217 294 217 249 268 304 268 249 236 231 249 228 237 238 182 296 236 227 246 10 37 32 50 69 68 62 57 66 67 64 58 60 65 73
337 328 290 226 204 291 275 243 216 174 217 231 242 209 268 313 308 283 186 220 269 266 246 274 138 257 252 210 217 27 38 51 80 82 59 53 71 71 60 64 58 58 66 67
357 341 298 296 287 301 207 226 200 191 243 224 240 234 240 263 193 241 220 200 281 352 269 266 308 290 232 183 204 215 60 105 93 88 72 69 74 84 66 56 48 46 54 59
321 308 306 307 274 237 224 206 183 206 233 205 204 256 223 248 221 202 216 173 37 256 334 356 277 250 195 163 157 133 123 130 113 91 69 72 80 73 68 55 53 52 52 54
321 284 264 224 233 318 219 216 223 206 155 220 292 304 238 223 220 231 96 124 230 348 31 246 237 265 191 161 157 152 154 145 126 108 102 89 84 78 69 56 54 55 57 62
283 269 263 215 221 236 214 200 167 32 265 286 299 265 226 190 175 191 165 213 75 36 271 241 254 256 197 174 164 171 164 163 145 137 118 103 94 87 75 65 62 57 54 54
260 231 241 237 236 256 267 300 302 305 320 325 321 250 217 177 7 305 95 142 241 203 232 233 251 235 194 189 175 163 162 167 179 158 140 119 100 95 86 69 66 63 62 59
242 234 258 258 300 290 321 309 313 338 329 325 219 231 176 220 189 191 222 148 219 247 226 240 230 205 188 181 183 183 187 190 190 179 165 145 125 106 93 84 75 72 66 63
240 250 249 261 281 270 282 300 311 320 323 275 213 213 223 106 224 241 200 204 226 286 290 241 221 211 204 194 199 200 191 186 182 183 175 160 143 119 105 89 81 72 70 69